Weather in El Porvenir

Panama     9°33′25″N   78°58′28″W
temp.,
°C
wind,
m/s
gust,
m/s
humid.,
%
clouds,
%
prec.,
mm/h
press.,
hPa
HPBL,
m
24 january, sun
sun2401:00+26nne7879100 0.6 1011974
04:00+26nne7882100 0.6 1010852
07:00+26nne798275 1.6 1011895
10:00+27nne897715 0.5 10121006
13:00+27nne797656 0.8 1010967
16:00+27nne798076 0.6 1008940
19:00+26nne8108172 0.9 10091020
22:00+27nne71082100 0.5 10101016
25 january, mon
mon2501:00+26nne81083100 1.4 1010953
04:00+26nne81183100 1.2 1009995
07:00+26ne9118199 2.2 1010996
10:00+26nne8108196 0.6 1011967
13:00+27ne897466 1.0 10091003
16:00+26nne687744 0.1 1007954
19:00+26nne788172 0.3 1008811
22:00+26nne688287 0.3 1010815
26 january, tue
tue2601:00+26nne688285 0.7 1010794
04:00+26nne688277 0.4 1008772
07:00+26ne688382 0.9 1010753
10:00+27ne788077 0.6 1011745
13:00+27ne677946 0.8 1009683
16:00+27nne57807 0.1 1007687
19:00+26ne57849 0.3 1008612
22:00+26ne578282 0.3 1010748
27 january, wed
wed2701:00+26ne578467 0.5 1010700
04:00+26ne578655 0.4 1008639
07:00+26ne678658 1.1 1010657
10:00+27ne788311 0.9 1011666
13:00+27ne78808 1.2 1010760
16:00+27nne56815 0.1 1007724
19:00+26nne468328 0.1 1009709
22:00+26nne568099 0.1 1010790
28 january, thu
thu2801:00+26nne6780100 0.3 1010830
04:00+26nne7881100 0.5 1010807
07:00+26nne688271 1.1 1011832
10:00+27ne798026 0.8 1013941
13:00+27nne797714 1.4 1011935
16:00+27nne8108019 0.6 1009959
19:00+26ne9118219 1.3 1010960
22:00+26ne9118184 0.4 10121055